Date,TemperatureHighF,TemperatureAvgF,TemperatureLowF,DewpointHighF,DewpointAvgF,DewpointLowF,HumidityHigh,HumidityAvg,HumidityLow,PressureMaxIn,PressureMinIn,WindSpeedMaxMPH,WindSpeedAvgMPH,GustSpeedMaxMPH,PrecipitationSumIn
2013-1-1,34,28,21,33,26,16,96,88,79,30.26,30.07,12,5,14,0.01
2013-1-2,30,21,12,18,14,10,92,77,49,30.32,30.24,3,0,5,0.00
2013-1-3,40,26,14,30,21,11,92,84,65,30.43,30.26,7,1,10,0.00
2013-1-4,39,28,19,29,24,18,94,84,64,30.48,30.36,8,1,9,0.00
2013-1-5,40,33,22,35,26,-100,95,82,74,30.37,30.17,10,-28,12,0.00
2013-1-6,40,33,23,35,27,-100,93,82,73,30.41,30.10,14,-17,25,0.00
2013-1-7,42,22,19,31,-14,-100,94,55,63,30.47,30.21,8,-321,13,0.00
2013-1-8,50,30,24,37,-4,-100,94,54,59,30.28,30.17,7,-282,10,0.00
2013-1-9,57,48,42,49,43,38,97,84,66,30.47,30.21,7,2,11,0.24
2013-1-10,58,35,43,57,5,-100,97,65,73,30.46,29.82,8,-280,10,0.24
2013-1-11,61,28,55,53,-27,-100,87,38,73,29.94,29.82,17,-511,24,0.00
2013-1-12,64,26,39,60,-28,-100,96,43,84,29.95,29.68,19,-528,25,2.03
2013-1-13,38,31,24,37,29,19,95,91,82,30.35,29.84,18,9,22,0.43
2013-1-14,28,24,21,22,19,16,88,82,77,30.50,30.35,11,4,13,0.00
2013-1-15,30,26,22,26,23,19,90,85,81,30.40,30.13,6,2,12,0.02
2013-1-16,37,32,28,27,26,24,89,80,64,30.16,30.07,7,3,11,0.02
2013-1-17,43,35,27,37,30,24,91,80,74,30.51,30.14,17,6,23,0.03
2013-1-18,47,35,22,33,28,21,94,76,52,30.54,30.22,15,5,22,0.00
2013-1-19,57,48,37,42,36,27,80,64,50,30.23,29.97,17,8,26,0.00
2013-1-20,45,35,26,38,24,17,84,65,46,30.33,30.09,12,5,17,0.00
2013-1-21,29,25,18,20,13,5,78,61,43,30.40,30.25,16,9,24,0.00
2013-1-22,21,19,15,15,8,1,88,64,48,30.50,30.39,10,4,14,0.00
2013-1-23,43,28,15,26,20,13,91,73,47,30.41,30.16,9,2,18,0.00
2013-1-24,32,26,20,23,14,8,73,60,42,30.61,30.29,12,4,18,0.00
2013-1-25,41,33,28,27,21,9,76,62,43,30.28,30.14,9,2,13,0.00
2013-1-26,40,32,27,27,22,19,84,68,45,30.41,30.23,5,1,11,0.00
2013-1-27,51,37,26,48,34,21,95,89,78,30.35,30.05,14,5,17,0.35
2013-1-28,63,58,50,60,56,47,94,91,85,30.06,29.96,17,8,21,0.05
2013-1-29,70,64,53,63,59,52,94,85,70,29.95,29.36,29,13,43,0.80
2013-1-30,56,44,31,52,41,23,96,86,71,29.90,29.39,19,8,28,0.46
2013-1-31,38,30,17,31,21,6,92,72,61,30.35,29.90,24,9,30,0.00
2013-2-1,27,20,12,17,9,4,73,63,51,30.55,30.32,19,6,24,0.00
2013-2-2,43,34,26,31,25,16,88,69,56,30.32,30.07,14,5,20,0.00
2013-2-3,35,29,21,30,24,17,95,83,61,30.20,30.01,19,4,21,0.00
2013-2-4,48,37,22,42,32,16,92,80,62,30.09,29.83,10,4,20,0.13
2013-2-5,55,40,28,39,33,26,93,78,54,30.12,29.91,12,3,16,0.00
2013-2-6,50,39,27,37,33,25,95,79,59,30.27,30.11,7,2,10,0.00
2013-2-7,66,48,32,51,41,30,94,78,52,30.10,29.83,14,5,21,0.17
2013-2-8,43,38,34,41,33,29,90,84,77,30.39,29.97,21,8,25,0.00
2013-2-9,46,39,33,37,32,28,88,77,63,30.39,30.07,9,3,14,0.07
2013-2-10,56,49,40,53,46,37,94,87,74,30.06,29.65,23,6,24,0.49
2013-2-11,54,45,35,43,32,28,76,60,43,30.15,29.79,15,5,22,0.00
2013-2-12,48,39,27,37,32,25,94,78,58,30.17,29.91,6,1,8,0.00
2013-2-13,52,42,37,39,36,31,92,78,46,29.91,29.84,9,4,13,0.04
2013-2-14,58,46,37,42,37,35,93,74,51,30.04,29.86,12,4,16,0.00
2013-2-15,42,37,27,37,27,20,87,68,50,30.24,30.04,18,6,20,0.00
2013-2-16,36,29,22,24,19,14,87,67,46,30.25,30.19,15,6,18,0.00
2013-2-17,47,34,19,27,22,15,92,65,41,30.26,30.02,12,3,16,0.00
2013-2-18,58,47,39,48,41,27,93,78,62,30.02,29.61,23,11,34,0.50
2013-2-19,40,34,28,36,24,17,84,67,48,30.29,29.86,19,10,26,0.01
2013-2-20,30,26,22,20,17,13,84,71,61,30.41,30.29,12,4,18,0.00
2013-2-21,34,28,22,33,25,18,94,86,74,30.33,29.83,10,4,16,0.01
2013-2-22,40,35,28,36,32,25,96,88,76,30.09,29.82,11,3,19,0.26
2013-2-23,39,31,24,29,25,21,93,81,63,30.07,29.99,11,2,12,0.00
2013-2-24,49,35,22,35,28,21,95,78,52,30.17,30.04,5,1,6,0.00
2013-2-25,51,42,31,38,33,28,88,72,56,30.07,29.57,13,5,15,0.01
2013-2-26,51,43,38,45,40,35,95,89,74,29.63,29.35,13,5,24,0.61
2013-2-27,40,26,35,35,-6,-100,92,60,74,29.88,29.65,11,-290,19,0.03
2013-2-28,37,16,34,33,-42,-100,89,38,85,30.09,29.88,11,-555,17,0.00
2013-3-1,38,16,33,35,-37,-100,95,44,87,30.14,30.05,14,-522,16,0.07
2013-3-2,34,21,29,29,-15,-100,88,53,64,30.22,30.13,14,-313,18,0.00
2013-3-3,39,32,21,28,23,19,92,72,51,30.21,30.09,8,2,9,0.00
2013-3-4,52,44,35,39,33,28,81,67,48,30.10,29.79,15,4,17,0.00
2013-3-5,46,38,33,40,34,26,94,83,69,30.05,29.76,27,9,33,0.10
2013-3-6,38,35,32,31,28,27,84,77,71,30.35,30.05,19,10,29,0.00
2013-3-7,44,34,25,33,28,23,94,80,63,30.44,30.35,5,1,8,0.00
2013-3-8,53,40,27,38,32,25,93,75,47,30.47,30.25,8,2,14,0.00
2013-3-9,66,52,40,41,37,33,80,58,37,30.25,29.88,17,5,19,0.00
2013-3-10,66,58,50,54,47,39,95,69,45,29.88,29.67,25,10,32,0.42
2013-3-11,51,41,37,50,37,30,95,86,77,30.00,29.68,11,5,18,0.00
2013-3-12,50,40,30,32,29,24,88,68,45,30.19,30.00,21,5,23,0.00
2013-3-13,40,34,27,28,24,20,83,67,53,30.43,30.18,19,8,24,0.00
2013-3-14,45,34,23,33,27,21,93,76,53,30.42,30.15,15,4,19,0.00
2013-3-15,72,52,29,54,41,28,95,71,37,30.14,29.69,18,3,22,0.00
2013-3-16,67,53,40,52,45,36,87,74,60,30.02,29.66,17,7,23,0.00
2013-3-17,40,37,34,38,36,32,95,93,85,30.09,29.81,9,3,13,1.91
2013-3-18,47,43,37,43,40,35,96,90,79,29.98,29.65,12,4,17,0.66
2013-3-19,48,39,31,33,27,23,86,62,39,30.22,29.98,12,5,21,0.32
2013-3-20,37,33,28,31,24,17,89,68,54,30.25,30.12,21,8,25,0.20
2013-3-21,38,30,23,25,19,15,74,64,49,30.14,30.01,9,3,12,0.02
2013-3-22,42,37,32,29,26,23,76,66,49,30.07,30.00,5,2,9,0.00
2013-3-23,56,45,38,39,32,27,73,63,48,30.04,29.78,7,2,10,0.01
2013-3-24,46,37,33,39,34,32,95,91,75,29.79,29.43,17,6,26,0.38
2013-3-25,38,34,32,35,31,29,95,89,79,30.17,29.73,17,10,24,0.11
2013-3-26,42,36,28,35,29,25,88,77,61,30.36,30.17,14,7,17,0.00
2013-3-27,49,36,23,34,28,22,95,74,48,30.42,30.32,7,1,12,0.00
2013-3-28,57,46,35,42,35,30,82,67,47,30.39,30.26,5,2,15,0.00
2013-3-29,58,48,41,50,44,38,95,86,68,30.29,30.19,6,2,8,0.16
2013-3-30,58,48,36,49,44,35,97,88,67,30.21,29.92,11,3,14,0.16
2013-3-31,66,55,48,53,48,44,96,80,47,29.93,29.84,13,3,17,0.00
2013-4-1,54,45,37,45,32,27,73,62,44,30.21,29.90,15,6,19,0.00
2013-4-2,49,40,31,31,24,15,79,56,27,30.34,30.21,8,3,15,0.00
2013-4-3,53,43,30,31,28,24,91,58,37,30.38,30.24,8,2,12,0.00
2013-4-4,61,47,35,39,30,26,82,54,28,30.24,30.01,5,1,18,0.00
2013-4-5,66,52,34,46,38,30,89,62,33,30.14,30.04,11,3,17,0.00
2013-4-6,73,61,44,47,41,37,77,50,30,30.08,29.81,22,8,35,0.00
2013-4-7,76,68,59,58,54,46,82,62,49,29.93,29.83,16,7,20,0.00
2013-4-8,75,66,60,61,57,54,84,72,56,29.91,29.80,22,7,24,0.00
2013-4-9,82,71,63,65,61,57,84,71,53,29.95,29.83,21,8,28,0.00
2013-4-10,81,75,66,71,67,63,91,76,65,29.85,29.64,23,8,26,0.31
2013-4-11,66,54,43,64,51,36,95,90,76,29.75,29.55,21,6,26,0.40
2013-4-12,54,45,36,38,35,34,91,71,55,30.04,29.74,14,5,20,0.00
2013-4-13,63,50,33,44,38,31,94,68,43,30.09,29.95,11,2,15,0.00
2013-4-14,77,63,47,55,48,41,82,59,36,29.94,29.70,19,8,31,0.00
2013-4-15,78,66,56,64,58,51,87,75,61,29.91,29.78,18,5,22,0.00
2013-4-16,71,60,54,62,56,51,91,86,72,30.10,29.84,11,4,18,0.00
2013-4-17,85,68,54,72,62,52,97,82,60,30.10,29.76,19,5,24,0.00
2013-4-18,77,67,45,68,61,41,95,81,66,29.76,29.61,26,12,33,1.69
2013-4-19,51,44,39,40,34,30,83,67,47,30.08,29.70,14,5,26,0.43
2013-4-20,57,46,34,38,34,30,92,66,37,30.35,30.08,8,2,15,0.00
2013-4-21,64,51,40,46,39,34,81,65,43,30.44,30.27,6,2,10,0.01
2013-4-22,74,58,40,51,44,37,90,64,35,30.28,30.02,12,3,17,0.00
2013-4-23,71,59,45,62,53,43,93,80,67,30.03,29.79,25,7,27,0.21
2013-4-24,51,44,38,43,39,34,94,82,54,30.27,29.92,23,6,23,0.59
2013-4-25,62,49,34,44,39,33,95,72,41,30.35,30.27,13,3,16,0.00
2013-4-26,60,52,43,50,45,39,94,77,58,30.42,30.26,14,2,14,0.02
2013-4-27,58,54,50,56,52,49,97,95,89,30.32,29.89,6,2,11,0.21
2013-4-28,59,56,54,56,54,53,97,92,85,29.95,29.86,10,3,13,0.02
2013-4-29,74,61,46,62,55,45,97,82,60,29.99,29.85,12,4,17,0.00
2013-4-30,84,70,57,62,58,55,91,70,45,29.96,29.86,12,4,17,0.00
2013-5-1,82,69,54,68,60,52,95,75,54,30.07,29.96,6,1,9,0.00
2013-5-2,79,67,56,62,59,54,96,78,48,30.12,30.01,10,3,16,0.11
2013-5-3,61,54,44,60,52,43,96,95,92,30.04,29.75,11,3,13,0.65
2013-5-4,51,46,43,47,44,41,95,92,86,29.99,29.86,5,2,10,0.31
2013-5-5,60,45,47,57,29,-100,97,80,88,29.99,29.84,7,-144,10,0.52
2013-5-6,64,32,55,60,-18,-100,96,46,83,29.94,29.85,8,-477,13,0.01
2013-5-7,76,47,57,64,12,-100,96,55,58,30.01,29.93,7,-294,9,0.00
2013-5-8,81,68,52,63,56,51,97,71,35,30.03,29.95,7,1,12,0.00
2013-5-9,81,72,62,66,61,54,93,71,42,29.98,29.83,18,5,26,0.00
2013-5-10,76,67,59,65,62,54,93,82,69,29.97,29.82,14,4,19,0.04
2013-5-11,71,61,53,57,50,38,89,69,45,30.12,29.94,19,7,23,0.00
2013-5-12,62,53,43,40,37,32,85,58,35,30.22,30.13,11,4,19,0.00
2013-5-13,71,56,39,49,40,33,96,61,29,30.25,30.09,6,1,12,0.00
2013-5-14,87,73,55,64,56,44,77,57,43,30.08,29.83,14,6,21,0.00
2013-5-15,88,78,70,65,62,58,74,58,44,29.96,29.83,12,5,19,0.00
2013-5-16,83,73,66,67,63,60,93,73,47,29.95,29.85,8,2,15,0.05
2013-5-17,77,70,63,68,64,61,93,83,71,29.97,29.91,9,2,14,0.00
2013-5-18,82,72,63,70,66,61,95,82,63,29.99,29.89,5,0,9,0.00
2013-5-19,91,78,66,77,70,64,93,78,58,29.90,29.77,14,5,19,0.00
2013-5-20,87,79,72,72,70,69,89,75,60,29.90,29.74,12,6,20,0.00
2013-5-21,80,70,65,70,66,63,95,85,65,29.89,29.70,19,5,25,0.94
2013-5-22,79,71,64,65,63,60,94,76,54,29.82,29.71,12,5,19,0.00
2013-5-23,67,63,54,60,56,49,87,80,69,30.21,29.85,15,4,22,0.00
2013-5-24,70,57,44,52,45,38,90,68,41,30.39,30.21,7,2,11,0.00
2013-5-25,74,62,46,58,52,44,96,72,47,30.36,30.14,9,1,11,0.00
2013-5-26,82,70,57,66,60,52,85,71,52,30.20,30.04,10,2,15,0.00
2013-5-27,86,73,63,69,63,59,93,73,46,30.04,29.86,23,6,26,0.06
2013-5-28,87,77,64,70,66,62,94,71,48,29.95,29.84,22,8,26,0.00
2013-5-29,87,78,65,70,66,61,88,66,50,30.00,29.88,16,6,22,0.00
2013-5-30,85,79,72,71,69,67,89,73,60,29.95,29.84,18,10,27,0.02
2013-5-31,82,74,65,73,70,63,96,86,71,29.91,29.79,18,6,22,1.96
2013-6-1,78,68,64,73,65,63,96,91,82,29.92,29.73,26,6,36,2.20
2013-6-2,70,66,62,65,61,58,94,85,76,29.99,29.87,10,3,12,0.00
2013-6-3,71,63,56,60,57,53,92,80,58,30.07,29.98,4,1,7,0.00
2013-6-4,78,66,52,65,58,51,97,79,59,30.09,29.98,8,1,10,0.00
2013-6-5,83,72,60,68,64,59,95,77,51,30.00,29.80,4,1,8,0.00
2013-6-6,82,74,68,68,65,63,87,74,55,29.81,29.75,10,4,16,0.00
2013-6-7,77,70,63,64,63,61,93,78,63,29.87,29.78,12,5,16,0.00
2013-6-8,81,70,59,65,60,57,96,74,45,29.97,29.86,8,1,10,0.00
2013-6-9,81,71,63,70,64,60,95,80,57,29.97,29.79,15,3,16,0.05
2013-6-10,80,70,62,68,65,60,96,86,62,29.90,29.78,8,2,12,0.21
2013-6-11,92,78,60,76,69,59,97,77,54,29.98,29.85,10,3,22,0.00
2013-6-12,94,86,75,77,74,71,87,68,54,29.96,29.74,17,5,25,0.00
2013-6-13,86,78,66,74,67,60,84,69,48,29.95,29.72,14,5,22,0.00
2013-6-14,83,72,59,65,61,57,93,71,49,30.07,29.93,8,2,13,0.00
2013-6-15,88,76,63,71,65,61,95,71,47,30.08,29.93,12,2,16,0.00
2013-6-16,83,76,69,75,70,66,94,83,68,30.00,29.91,9,2,14,0.01
2013-6-17,88,73,66,75,69,64,96,87,57,29.94,29.85,11,2,17,0.17
2013-6-18,88,75,63,72,66,62,96,77,51,29.94,29.85,8,2,10,0.00
2013-6-19,88,76,64,71,67,62,96,76,47,30.04,29.93,5,1,7,0.00
2013-6-20,89,78,66,72,69,65,96,74,51,30.11,30.04,7,2,9,0.00
2013-6-21,91,81,69,74,71,67,92,74,54,30.12,30.02,11,3,16,0.00
2013-6-22,90,78,69,75,71,67,93,79,51,30.10,29.99,12,4,19,0.06
2013-6-23,84,73,67,75,69,66,96,88,71,30.07,29.98,19,3,26,0.77
2013-6-24,89,76,68,79,72,66,96,86,67,30.10,29.97,9,3,16,0.29
2013-6-25,91,83,75,78,75,72,92,77,58,29.99,29.81,13,5,21,0.00
2013-6-26,90,80,74,80,74,71,94,83,70,29.89,29.69,16,4,23,0.06
2013-6-27,93,82,72,77,73,70,96,76,50,29.83,29.74,12,3,15,0.01
2013-6-28,89,81,72,74,68,59,91,66,43,29.81,29.66,16,4,21,0.00
2013-6-29,83,73,65,70,64,61,94,75,54,29.68,29.60,14,3,18,0.15
2013-6-30,77,69,64,68,65,63,95,89,72,29.84,29.67,10,3,19,0.21
2013-7-1,70,67,64,67,64,62,95,93,88,29.90,29.82,8,3,13,1.34
2013-7-2,72,67,65,70,66,64,97,94,89,30.00,29.86,8,2,12,1.70
2013-7-3,81,70,62,66,64,61,96,82,54,30.09,29.99,7,1,9,0.02
2013-7-4,84,72,60,72,66,59,97,82,58,30.08,29.99,4,0,6,0.03
2013-7-5,81,72,63,71,68,62,97,86,69,30.08,30.00,4,0,9,0.00
2013-7-6,85,74,66,73,69,62,94,84,62,30.06,29.96,11,3,13,0.05
2013-7-7,89,76,62,76,69,61,96,81,53,30.07,30.00,9,2,12,0.01
2013-7-8,90,80,70,76,73,68,94,80,61,30.10,30.01,10,2,12,0.00
2013-7-9,92,83,76,80,76,72,90,79,60,30.05,29.93,9,3,13,0.00
2013-7-10,86,80,75,76,74,72,93,82,71,29.95,29.86,5,2,10,0.00
2013-7-11,83,76,67,72,66,61,95,73,50,30.02,29.92,7,2,11,0.00
2013-7-12,85,73,62,66,63,59,91,72,49,30.09,30.00,4,0,10,0.00
2013-7-13,86,49,61,70,2,-100,95,40,50,30.06,29.98,5,-388,9,0.00
2013-7-14,87,49,65,78,4,-100,96,46,62,30.12,30.02,6,-395,10,0.00
2013-7-15,88,49,72,79,4,-100,95,47,69,30.22,30.11,7,-409,11,0.01
2013-7-16,93,52,71,78,5,-100,97,42,57,30.28,30.20,4,-399,7,0.00
2013-7-17,94,49,72,79,0,-100,96,41,57,30.30,30.22,4,-434,7,0.00
2013-7-18,94,69,82,79,38,-100,85,55,57,30.13,30.01,8,-223,10,0.00
2013-7-19,91,51,73,78,5,-100,95,43,61,30.01,29.87,10,-397,14,0.00
2013-7-20,92,45,73,78,-8,-100,93,39,61,29.93,29.76,9,-473,17,0.45
2013-7-21,85,56,70,77,24,-100,96,62,73,29.93,29.83,7,-280,15,0.92
2013-7-22,89,77,71,77,73,70,96,87,64,29.84,29.77,5,1,12,0.01
2013-7-23,90,81,73,80,75,68,95,83,68,29.85,29.72,6,2,12,0.00
2013-7-24,79,72,63,71,63,59,90,74,55,30.00,29.84,7,2,9,0.00
2013-7-25,80,70,59,66,61,57,94,76,50,30.09,29.99,7,1,11,0.00
2013-7-26,79,69,58,69,64,57,97,86,64,30.06,29.95,6,1,8,0.02
2013-7-27,77,70,58,68,63,54,95,79,57,29.97,29.91,10,3,14,0.03
2013-7-28,79,66,52,65,57,50,97,75,51,30.04,29.97,8,1,12,0.00
2013-7-29,78,68,57,70,63,56,96,85,66,30.15,30.04,5,1,9,0.00
2013-7-30,71,69,66,70,67,64,96,94,86,30.14,30.00,10,2,11,1.29
2013-7-31,84,73,70,76,68,-100,97,88,75,30.02,29.92,7,-20,12,0.06
2013-8-1,84,74,66,73,68,65,96,82,57,30.04,29.97,6,2,11,0.00
2013-8-2,83,73,62,73,68,61,97,86,68,30.00,29.91,7,2,11,0.18
2013-8-3,85,75,68,77,72,67,96,89,72,30.06,29.90,8,1,11,0.02
2013-8-4,81,72,62,68,65,61,95,79,56,30.15,30.06,3,0,6,0.00
2013-8-5,75,68,61,67,65,59,96,90,73,30.09,29.91,9,2,12,0.06
2013-8-6,82,73,69,75,70,67,96,91,74,29.93,29.86,7,1,10,0.00
2013-8-7,84,75,70,76,72,68,96,89,71,29.92,29.82,5,1,10,0.00
2013-8-8,83,75,67,78,72,66,97,91,77,29.94,29.84,7,1,8,0.09
2013-8-9,83,75,71,75,72,70,96,92,76,30.02,29.90,5,0,7,0.13
2013-8-10,85,76,70,74,70,67,96,83,61,30.10,30.02,4,1,9,0.00
2013-8-11,85,75,64,74,68,62,95,80,59,30.12,30.02,4,1,7,0.00
2013-8-12,86,75,68,79,72,66,95,90,78,30.05,29.87,7,1,10,0.05
2013-8-13,80,73,64,73,68,59,96,86,67,30.08,29.90,9,2,12,0.01
2013-8-14,74,64,54,59,56,51,93,76,55,30.17,30.08,7,1,11,0.00
2013-8-15,76,64,54,62,56,52,94,79,56,30.14,30.05,5,1,9,0.00
2013-8-16,77,66,54,65,60,52,96,81,63,30.11,30.07,4,0,7,0.00
2013-8-17,76,69,64,69,64,60,94,85,73,30.16,30.07,4,1,8,0.08
2013-8-18,84,72,64,73,68,63,96,86,64,30.14,30.05,3,0,6,0.04
2013-8-19,85,72,61,73,67,60,97,85,60,30.12,30.02,3,0,6,0.00
2013-8-20,87,75,62,75,69,61,97,84,61,30.11,30.02,3,0,6,0.00
2013-8-21,88,76,64,76,70,63,96,82,56,30.13,30.03,3,0,7,0.00
2013-8-22,91,78,66,78,72,64,96,82,60,30.10,29.98,5,1,8,0.00
2013-8-23,89,78,69,78,72,67,96,84,59,30.08,30.00,4,1,8,0.00
2013-8-24,89,76,65,75,69,63,96,81,53,30.19,30.08,6,1,7,0.00
2013-8-25,89,75,60,76,69,59,96,82,57,30.26,30.16,4,1,7,0.00
2013-8-26,90,79,68,79,73,67,96,84,63,30.22,30.07,5,1,11,0.00
2013-8-27,90,80,72,80,75,70,94,85,71,30.09,29.98,5,1,8,0.00
2013-8-28,92,82,73,76,72,70,91,74,49,30.02,29.95,7,2,12,0.00
2013-8-29,94,82,71,79,74,69,93,77,54,30.01,29.92,5,1,11,0.00
2013-8-30,95,83,70,79,74,69,96,78,52,29.95,29.82,6,1,9,0.00
2013-8-31,96,85,73,80,76,71,94,76,53,29.85,29.71,8,2,12,0.00
2013-9-1,90,79,70,77,73,69,94,83,64,29.82,29.72,11,2,17,0.00
2013-9-2,85,76,66,73,69,63,96,80,56,29.91,29.80,10,2,13,0.00
2013-9-3,82,71,61,68,64,59,95,79,53,30.06,29.92,6,1,10,0.00
2013-9-4,84,68,54,66,60,53,96,78,44,30.15,30.06,5,0,8,0.00
2013-9-5,85,70,55,69,62,54,96,79,50,30.20,30.11,5,0,7,0.00
2013-9-6,88,74,60,71,66,58,97,79,52,30.17,30.04,6,1,11,0.00
2013-9-7,90,75,60,72,67,59,96,79,51,30.06,29.93,8,1,11,0.00
2013-9-8,85,75,68,77,71,66,94,87,71,29.98,29.89,5,1,10,0.02
2013-9-9,96,81,70,79,74,69,96,80,50,29.98,29.90,7,2,11,0.00
2013-9-10,92,82,73,77,74,71,95,78,53,30.09,29.97,11,2,13,0.00
2013-9-11,97,83,72,76,73,68,94,75,41,30.13,30.01,6,2,9,0.00
2013-9-12,88,77,68,73,68,55,93,76,53,30.05,29.94,9,2,13,0.02
2013-9-13,76,66,56,58,54,50,92,68,47,30.09,30.00,8,2,11,0.00
2013-9-14,77,60,47,54,49,44,94,70,38,30.16,30.04,6,1,9,0.00
2013-9-15,82,65,46,61,54,45,96,71,38,30.10,30.01,10,2,11,0.00
2013-9-16,75,67,60,65,62,57,93,83,66,30.22,30.06,6,2,10,0.02
2013-9-17,82,68,57,65,60,55,94,77,50,30.23,30.08,5,1,10,0.00
2013-9-18,88,75,65,73,68,62,94,81,57,30.11,29.97,9,2,13,0.01
2013-9-19,90,79,70,75,72,69,94,80,57,30.03,29.89,10,4,14,0.00
2013-9-20,77,72,66,71,69,63,95,89,76,29.93,29.82,9,2,12,0.30
2013-9-21,74,64,53,63,54,51,94,73,47,29.92,29.85,12,4,19,0.00
2013-9-22,77,61,47,58,52,46,96,76,41,30.01,29.92,5,0,9,0.00
2013-9-23,79,61,46,58,52,45,96,75,39,30.04,29.93,5,1,13,0.00
2013-9-24,83,68,53,68,60,50,94,80,54,29.96,29.81,8,2,13,0.02
2013-9-25,84,71,62,70,65,60,96,83,56,29.86,29.79,5,0,9,0.01
2013-9-26,86,69,58,69,61,56,96,78,45,30.02,29.86,5,0,9,0.00
2013-9-27,84,66,51,63,57,50,96,76,42,30.12,30.01,6,1,12,0.00
2013-9-28,85,70,55,66,60,53,96,73,45,30.10,29.98,12,4,20,0.00
2013-9-29,70,66,63,64,63,60,95,91,71,30.03,29.97,7,2,9,0.35
2013-9-30,74,67,63,68,64,62,95,91,79,29.99,29.92,11,2,13,0.00
2013-10-1,81,71,64,72,68,63,96,89,72,30.05,29.96,9,3,11,0.00
2013-10-2,83,72,69,74,70,67,96,92,73,30.07,29.98,6,1,12,0.23
2013-10-3,86,76,68,71,68,66,95,80,55,30.02,29.91,15,3,17,0.00
2013-10-4,88,75,69,74,70,66,95,85,60,30.02,29.92,8,2,21,0.66
2013-10-5,82,72,68,75,70,66,96,93,75,29.97,29.81,8,3,15,1.12
2013-10-6,68,59,50,65,50,44,95,75,50,29.92,29.80,10,3,18,0.00
2013-10-7,67,56,48,52,49,45,94,78,54,30.16,29.91,10,2,14,0.00
2013-10-8,74,57,44,55,50,43,97,79,47,30.23,30.13,7,1,11,0.00
2013-10-9,78,60,44,61,53,43,96,81,52,30.20,30.09,5,0,7,0.00
2013-10-10,80,65,53,67,60,52,97,85,58,30.15,30.01,4,1,7,0.00
2013-10-11,81,66,55,65,59,54,97,80,49,30.06,29.95,9,2,15,0.00
2013-10-12,73,63,56,69,61,55,96,93,82,30.16,29.98,5,1,8,0.16
2013-10-13,75,61,51,60,48,43,96,66,32,30.35,30.16,8,2,12,0.01
2013-10-14,71,58,46,59,51,42,92,77,61,30.32,30.08,3,0,5,0.00
2013-10-15,69,65,58,66,62,56,94,91,86,30.08,29.91,9,3,15,0.12
2013-10-16,64,57,48,61,49,45,94,77,56,30.03,29.93,9,4,14,0.01
2013-10-17,64,53,45,51,48,44,95,83,55,30.01,29.94,7,1,13,0.13
2013-10-18,67,54,42,52,47,41,97,78,50,30.06,29.95,8,2,12,0.01
2013-10-19,58,49,43,48,42,37,94,79,46,30.04,29.94,13,4,16,0.28
2013-10-20,67,52,40,48,43,38,93,74,48,30.04,29.94,16,4,19,0.00
2013-10-21,62,52,43,51,46,38,93,79,64,30.07,29.97,13,4,15,0.00
2013-10-22,59,47,34,48,39,32,96,77,48,30.09,29.83,17,4,25,0.07
2013-10-23,51,45,41,40,36,30,87,73,49,30.15,29.94,18,7,26,0.00
2013-10-24,50,43,35,38,32,27,91,69,43,30.42,30.14,16,5,21,0.00
2013-10-25,54,39,26,33,29,24,94,71,37,30.55,30.29,8,1,11,0.00
2013-10-26,62,48,32,45,38,28,86,68,51,30.28,30.00,14,4,19,0.00
2013-10-27,62,44,31,43,34,29,96,73,37,30.15,30.04,7,1,9,0.00
2013-10-28,70,49,32,45,39,31,96,73,34,30.26,30.08,7,0,8,0.00
2013-10-29,58,52,43,57,49,39,96,90,77,30.29,30.09,5,1,8,0.20
2013-10-30,76,68,56,68,64,55,96,86,69,30.09,29.90,16,5,20,0.16
2013-10-31,68,63,55,66,61,52,96,93,89,29.90,29.39,21,8,26,2.18
2013-11-1,64,55,45,53,48,43,94,80,53,29.85,29.64,13,3,16,0.00
2013-11-2,55,48,39,47,42,37,95,83,61,30.20,29.84,16,4,20,0.00
2013-11-3,59,45,32,44,37,31,96,76,44,30.34,30.19,7,1,13,0.00
2013-11-4,60,52,43,49,44,38,93,75,59,30.29,30.21,9,3,17,0.02
2013-11-5,66,58,50,53,50,48,95,77,59,30.33,30.09,15,5,20,0.02
2013-11-6,63,53,42,55,49,38,94,86,68,30.25,29.99,16,9,22,0.42
2013-11-7,54,42,34,39,36,32,94,79,53,30.40,30.25,8,2,13,0.00
2013-11-8,58,43,30,42,33,28,96,72,39,30.42,30.17,14,3,15,0.01
2013-11-9,66,54,42,48,42,35,87,68,46,30.22,30.10,12,4,22,0.00
2013-11-10,57,46,35,45,37,33,94,73,43,30.42,30.22,8,2,12,0.00
2013-11-11,63,47,34,48,37,32,94,72,40,30.41,30.13,15,3,20,0.01
2013-11-12,38,32,23,35,25,19,91,74,56,30.74,30.42,14,6,22,0.01
2013-11-13,45,31,19,26,21,17,94,69,35,30.74,30.40,8,2,11,0.00
2013-11-14,56,43,28,28,25,23,79,53,30,30.40,30.13,15,5,20,0.00
2013-11-15,52,48,40,47,36,26,90,66,44,30.13,30.01,8,4,14,0.01
2013-11-16,67,59,48,63,56,46,93,87,77,30.02,29.72,17,9,28,0.01
2013-11-17,76,66,53,68,54,32,94,70,31,29.94,29.46,22,10,33,1.34
2013-11-18,57,48,34,43,37,31,89,69,41,30.30,29.94,17,5,21,0.00
2013-11-19,48,38,32,34,31,29,90,75,51,30.37,30.25,3,1,5,0.00
2013-11-20,52,43,31,40,35,28,91,75,54,30.26,30.11,7,2,12,0.00
2013-11-21,54,52,51,51,47,39,96,84,63,30.21,30.14,12,3,15,1.01
2013-11-22,52,45,38,51,43,34,96,92,84,30.48,30.17,17,7,22,0.04
2013-11-23,38,32,22,34,25,15,90,75,54,30.72,30.48,20,8,23,0.00
2013-11-24,32,25,18,20,16,12,78,68,49,30.79,30.50,6,2,9,0.00
2013-11-25,37,33,28,28,23,19,78,67,53,30.50,30.21,9,2,12,0.00
2013-11-26,42,35,26,32,27,15,87,72,60,30.21,30.02,20,7,26,0.00
2013-11-27,30,24,18,15,13,11,87,65,48,30.39,30.19,17,8,25,0.00
2013-11-28,45,31,18,27,21,13,91,70,45,30.50,30.31,15,4,25,0.00
2013-11-29,48,34,23,32,26,21,92,75,51,30.62,30.43,3,1,8,0.00
2013-11-30,55,42,27,35,31,24,92,67,43,30.43,30.16,14,4,20,0.00
2013-12-1,60,48,36,45,40,34,94,75,57,30.16,29.92,7,1,9,0.00
2013-12-2,59,46,34,50,42,33,96,88,72,29.92,29.72,6,1,8,0.00
2013-12-3,60,51,44,54,48,43,96,91,75,29.76,29.68,10,2,15,0.00
2013-12-4,68,59,43,62,55,41,96,87,75,29.80,29.58,19,6,25,0.00
2013-12-5,53,34,24,48,31,22,94,88,78,30.28,29.81,20,5,22,0.10
2013-12-6,24,22,19,23,20,15,93,92,83,30.57,30.24,10,2,13,0.00
2013-12-7,23,17,9,16,12,6,87,81,70,30.73,30.49,7,2,12,0.00
2013-12-8,30,26,20,29,23,16,95,90,83,30.47,30.04,5,1,11,0.00
2013-12-9,30,27,22,27,22,17,92,81,69,30.32,30.12,13,4,18,0.00
2013-12-10,36,25,15,21,19,12,93,79,52,30.39,30.27,9,3,15,0.01
2013-12-11,33,22,11,27,17,4,94,81,64,30.68,30.37,14,4,21,0.01
2013-12-12,31,17,0,16,7,-3,89,67,43,30.68,30.37,9,3,13,0.00
2013-12-13,40,30,20,33,24,14,94,81,56,30.36,30.01,10,4,14,0.02
2013-12-14,36,34,30,35,32,27,96,93,87,30.13,29.83,18,6,22,0.82
2013-12-15,33,29,27,31,26,23,93,86,80,30.25,30.11,14,5,19,0.00
2013-12-16,47,39,33,37,34,31,92,82,63,30.10,30.03,9,3,12,0.15
2013-12-17,41,32,28,33,29,25,93,87,72,30.30,30.10,11,4,14,0.00
2013-12-18,48,37,23,35,27,21,93,70,44,30.31,30.02,13,5,20,0.00
2013-12-19,58,51,43,52,45,36,82,77,67,30.03,29.86,20,9,24,0.00
2013-12-20,64,58,44,62,55,42,94,89,80,29.86,29.77,16,9,22,1.06
2013-12-21,44,40,37,42,39,36,96,95,93,29.82,29.52,17,4,17,2.96
2013-12-22,42,38,33,40,35,30,96,91,83,30.25,29.64,16,6,20,0.01
2013-12-23,33,28,22,30,23,16,89,82,76,30.57,30.25,16,9,21,0.00
2013-12-24,25,19,13,16,11,7,82,71,54,30.67,30.44,13,4,18,0.00
2013-12-25,37,30,20,31,23,15,88,76,66,30.44,30.29,9,3,14,0.00
2013-12-26,46,35,25,32,29,23,95,78,50,30.44,30.32,9,3,13,0.00
2013-12-27,53,40,31,38,33,28,89,77,57,30.43,30.31,12,3,14,0.00
2013-12-28,50,42,32,38,34,29,92,76,57,30.31,29.96,10,3,14,0.00
2013-12-29,44,35,23,38,30,19,88,84,77,30.26,29.89,21,8,24,0.00
2013-12-30,27,22,16,19,14,10,83,72,51,30.38,30.25,11,3,14,0.00
2013-12-31,42,33,22,29,23,17,83,67,53,30.47,30.27,11,4,19,0.00
2014-1-1,46,39,32,35,32,29,93,77,61,30.26,29.97,11,4,17,0.04
2014-1-2,37,23,15,35,19,11,93,85,77,30.50,29.96,23,12,28,0.00